Hugo, OK

12:29 PM CDT on September 23, 2017 (GMT -0500)
Stamper Municipal

Weather History for KHHW - April, 2014

Change the Weather History Date:

Monday, April 28, 2014

  Actual Average Record
Temperature  
Mean Temperature 72 °F -  
Max Temperature 80 °F 76 °F 83 °F (2017)
Min Temperature 63 °F 53 °F 46 °F (2013)
Cooling Degree Days 6    
Growing Degree Days 22 (Base 50)    
Moisture  
Dew Point 50 °F    
Average Humidity 46    
Maximum Humidity 84    
Minimum Humidity 27    
Precipitation  
Precipitation 0.00 in - - ()
Sea Level Pressure  
Sea Level Pressure 29.59 in    
Wind  
Wind Speed 8 mph (West)    
Max Wind Speed 15 mph    
Max Gust Speed 24 mph    
Visibility 10 miles    
Events      
Averages and records for this station are not official NWS values.
T = Trace of Precipitation, MM = Missing Value Source: NWS Daily Summary

Daily Weather History Graph

Daily Weather History Graph

Search for Another Location

Airport or City:

Trip Planner

Search our weather history database for the weather conditions in past years. The results will help you decide how hot, cold, wet, or windy it might be!

Date:

Astronomy

Apr. 28, 2014 Rise Set
Actual Time 6:36 AM CDT 8:03 PM CDT
Civil Twilight 6:09 AM CDT 8:30 PM CDT
Nautical Twilight 5:37 AM CDT 9:02 PM CDT
Astronomical Twilight 5:04 AM CDT 9:35 PM CDT
Moon 6:12 AM CDT (4/28) 7:44 PM CDT (4/28)
Length of Visible Light 14h 20m
Length of Day
13h 27m
Waning Crescent, 0% of the Moon is Illuminated
Apr 28
Waning Crescent
Apr 29
New
May 6
First Quarter
May 14
Full
May 21
Last Quarter

Hourly Weather History & Observations

Time (CDT) Temp. Dew Point Humidity Pressure Visibility Wind Dir Wind Speed Gust Speed Precip Events Conditions
12:15 AM 75.4 °F 68.9 °F 80% 29.45 in 10.0 mi SSW 6.9 mph - N/A   Scattered Clouds
12:35 AM 75.2 °F 69.3 °F 82% 29.47 in 10.0 mi SSW 8.1 mph - N/A   Mostly Cloudy
12:55 AM 75.2 °F 70.2 °F 84% 29.48 in 10.0 mi SW 8.1 mph - N/A   Mostly Cloudy
1:15 AM 75.2 °F 69.8 °F 83% 29.48 in 10.0 mi SSW 8.1 mph - N/A   Overcast
1:35 AM 75.4 °F 70.0 °F 83% 29.49 in 10.0 mi SSW 6.9 mph - N/A   Mostly Cloudy
1:55 AM 75.4 °F 69.3 °F 81% 29.49 in 10.0 mi SSW 6.9 mph - N/A   Scattered Clouds
2:15 AM 73.8 °F 68.2 °F 83% 29.48 in 10.0 mi SSW 6.9 mph - N/A   Mostly Cloudy
2:35 AM 73.4 °F 66.6 °F 79% 29.47 in 10.0 mi SW 6.9 mph - N/A   Overcast
2:55 AM 73.4 °F 63.1 °F 70% 29.47 in 10.0 mi SW 8.1 mph - N/A   Overcast
3:15 AM 74.5 °F 57.4 °F 55% 29.48 in 10.0 mi SW 10.4 mph - N/A   Mostly Cloudy
3:35 AM 75.0 °F 51.8 °F 44% 29.49 in 10.0 mi WSW 10.4 mph - N/A   Scattered Clouds
3:55 AM 76.1 °F 43.7 °F 31% 29.50 in 10.0 mi WSW 10.4 mph - N/A   Clear
4:15 AM 74.8 °F 42.8 °F 32% 29.50 in 10.0 mi SW 9.2 mph - N/A   Clear
4:35 AM 74.3 °F 40.5 °F 30% 29.50 in 10.0 mi SW 11.5 mph - N/A   Clear
5:15 AM 73.6 °F 37.4 °F 27% 29.51 in 10.0 mi WSW 12.7 mph 17.3 mph N/A   Clear
5:35 AM 72.0 °F 38.1 °F 29% 29.52 in 10.0 mi West 10.4 mph - N/A   Mostly Cloudy
5:55 AM 70.7 °F 38.5 °F 31% 29.52 in 10.0 mi West 8.1 mph - N/A   Overcast
6:15 AM 69.3 °F 39.2 °F 33% 29.53 in 10.0 mi West 9.2 mph - N/A   Overcast
6:35 AM 67.6 °F 40.3 °F 37% 29.55 in 10.0 mi West 9.2 mph - N/A   Overcast
6:55 AM 66.6 °F 41.5 °F 40% 29.56 in 10.0 mi West 9.2 mph - N/A   Overcast
7:15 AM 65.3 °F 43.3 °F 45% 29.57 in 10.0 mi WNW 10.4 mph - N/A   Scattered Clouds
7:35 AM 64.4 °F 46.2 °F 52% 29.58 in 10.0 mi WNW 8.1 mph - N/A   Clear
7:55 AM 65.7 °F 47.3 °F 51% 29.60 in 10.0 mi WNW 6.9 mph - N/A   Clear
8:15 AM 66.9 °F 47.5 °F 50% 29.61 in 10.0 mi West 8.1 mph - N/A   Scattered Clouds
8:55 AM 67.3 °F 48.0 °F 50% 29.62 in 10.0 mi West 9.2 mph - N/A   Clear
9:15 AM 68.0 °F 47.1 °F 47% 29.62 in 10.0 mi NW 13.8 mph 17.3 mph N/A   Clear
9:35 AM 68.2 °F 45.9 °F 45% 29.63 in 10.0 mi WNW 12.7 mph - N/A   Clear
9:55 AM 69.1 °F 45.0 °F 42% 29.65 in 10.0 mi NW 10.4 mph 16.1 mph N/A   Clear
10:15 AM 70.2 °F 45.9 °F 42% 29.65 in 10.0 mi WNW 11.5 mph 17.3 mph N/A   Scattered Clouds
10:35 AM 71.6 °F 47.5 °F 42% 29.65 in 10.0 mi WNW 10.4 mph - N/A   Scattered Clouds
11:15 AM 72.5 °F 46.9 °F 40% 29.65 in 10.0 mi WNW 10.4 mph 17.3 mph N/A   Clear
11:35 AM 73.6 °F 49.1 °F 42% 29.65 in 10.0 mi WNW 10.4 mph - N/A   Scattered Clouds
12:15 PM 74.5 °F 48.7 °F 40% 29.65 in 10.0 mi West 11.5 mph 16.1 mph N/A   Clear
12:35 PM 75.2 °F 49.3 °F 40% 29.65 in 10.0 mi WNW 12.7 mph 16.1 mph N/A   Clear
12:55 PM 75.9 °F 48.4 °F 38% 29.65 in 10.0 mi NW 13.8 mph 19.6 mph N/A   Clear
1:15 PM 76.3 °F 49.6 °F 39% 29.65 in 10.0 mi WNW 8.1 mph - N/A   Clear
1:55 PM 77.9 °F 49.6 °F 37% 29.65 in 10.0 mi West 9.2 mph - N/A   Scattered Clouds
2:15 PM 77.5 °F 47.8 °F 35% 29.64 in 10.0 mi NW 10.4 mph - N/A   Scattered Clouds
2:35 PM 78.3 °F 49.8 °F 37% 29.64 in 10.0 mi West 10.4 mph - N/A   Clear
2:55 PM 78.4 °F 49.1 °F 36% 29.64 in 10.0 mi West 6.9 mph - N/A   Clear
3:15 PM 78.3 °F 48.6 °F 35% 29.64 in 10.0 mi West 9.2 mph - N/A   Scattered Clouds
3:35 PM 79.2 °F 48.9 °F 35% 29.63 in 10.0 mi West 8.1 mph - N/A   Scattered Clouds
4:15 PM 79.7 °F 47.8 °F 33% 29.62 in 10.0 mi WNW 11.5 mph - N/A   Clear
4:35 PM 79.7 °F 47.7 °F 32% 29.62 in 10.0 mi West 13.8 mph 19.6 mph N/A   Scattered Clouds
4:55 PM 79.7 °F 47.7 °F 32% 29.62 in 10.0 mi WNW 12.7 mph 18.4 mph N/A   Scattered Clouds
5:15 PM 79.7 °F 48.2 °F 33% 29.62 in 10.0 mi West 11.5 mph - N/A   Scattered Clouds
5:35 PM 78.8 °F 46.8 °F 32% 29.62 in 10.0 mi West 11.5 mph 16.1 mph N/A   Clear
5:55 PM 78.8 °F 46.2 °F 32% 29.62 in 10.0 mi West 11.5 mph - N/A   Clear
6:15 PM 78.1 °F 47.1 °F 33% 29.61 in 10.0 mi West 6.9 mph - N/A   Scattered Clouds
6:35 PM 77.9 °F 47.5 °F 34% 29.60 in 10.0 mi NW 4.6 mph - N/A   Clear
6:55 PM 77.4 °F 47.1 °F 34% 29.60 in 10.0 mi NW 3.5 mph - N/A   Scattered Clouds
7:15 PM 75.6 °F 48.6 °F 38% 29.60 in 10.0 mi WSW 3.5 mph - N/A   Clear
7:35 PM 74.5 °F 48.6 °F 40% 29.60 in 10.0 mi SW 3.5 mph - N/A   Clear
7:55 PM 74.7 °F 47.1 °F 38% 29.61 in 10.0 mi Calm Calm - N/A   Clear
8:15 PM 73.2 °F 49.3 °F 43% 29.63 in 10.0 mi Calm Calm - N/A   Clear
8:35 PM 69.3 °F 46.9 °F 45% 29.65 in 10.0 mi North 15.0 mph 24.2 mph N/A   Clear
8:55 PM 67.8 °F 45.5 °F 45% 29.65 in 10.0 mi NNE 10.4 mph 17.3 mph N/A   Clear
9:15 PM 66.7 °F 45.5 °F 46% 29.66 in 10.0 mi NNE 5.8 mph - N/A   Clear
9:55 PM 65.3 °F 46.9 °F 51% 29.67 in 10.0 mi NE 4.6 mph - N/A   Clear
10:15 PM 65.3 °F 46.9 °F 51% 29.67 in 10.0 mi Calm Calm - N/A   Clear
10:35 PM 65.3 °F 47.3 °F 52% 29.68 in 10.0 mi Calm Calm - N/A   Clear
10:55 PM 64.9 °F 48.2 °F 55% 29.67 in 10.0 mi Calm Calm - N/A   Clear
11:15 PM 64.6 °F 49.1 °F 57% 29.67 in 10.0 mi Calm Calm - N/A   Clear
11:35 PM 64.0 °F 51.8 °F 64% 29.68 in 10.0 mi Calm Calm - N/A   Clear
11:55 PM 63.9 °F 50.7 °F 62% 29.67 in 10.0 mi Calm Calm - N/A   Clear